Regional Weather Roundup
Issued by NWS

Home | Current Version | Previous Version | Text Only | Print | Product List | Glossary On
Versions: 1 2 3 4 5 6 7 8 9 10 11 12 13 14 15 16 17 18 19 20 21 22 23 24 25 26 27 28 29 30 31 32 33 34 35 36 37 38 39 40 41 42 43 44 45 46 47 48 49 50
000
ASUS43 KTOP 031508
RWRKS

WEATHER ROUNDUP FOR KANSAS
NATIONAL WEATHER SERVICE GOODLAND KS
1000 AM CDT THU SEP 03 2015

NOTE:  "FAIR" INDICATES FEW OR NO CLOUDS BELOW 12,000 FEET WITH NO
SIGNIFICANT WEATHER AND/OR OBSTRUCTIONS TO VISIBILITY.

KSZ001>006-013>018-027>032-041>047-031600-
NORTHWEST KANSAS

CITY           SKY/WX    TMP DP  RH WIND       PRES   REMARKS
GOODLAND       MOSUNNY   80  46  30 NW6       29.89S
HAYS           SUNNY     82  57  42 S18G25    29.85F
HILL CITY      SUNNY     81  58  45 S14       29.84F
RUSSELL        SUNNY     84  59  42 S23G35    29.84F
$$

KSZ061>065-074>080-084>089-031600-
SOUTHWEST KANSAS

CITY           SKY/WX    TMP DP  RH WIND       PRES   REMARKS
DODGE CITY     SUNNY     79  55  43 S20G25    29.90F
ELKHART          N/A     79  57  46 S6          N/A
GARDEN CITY    SUNNY     77  57  50 S13       29.88F
GREAT BEND     SUNNY     81  61  50 S22G30    29.87F
LIBERAL        SUNNY     81  57  44 S17       29.92S
PRATT          SUNNY     79  59  50 MISG      29.92F
$$

KSZ066>073-081>083-090>101-031600-
SOUTHEAST KANSAS

CITY           SKY/WX    TMP DP  RH WIND       PRES   REMARKS
CHANUTE        SUNNY     80  68  66 S14       29.99S
COFFEYVILLE    SUNNY     79  70  74 S12       30.00S
HUTCHINSON     MOSUNNY   82  63  52 S17G24    29.92F
MEDICINE LODGE   N/A     80  63  55 S13G21    29.92F
NEWTON         SUNNY     81  63  54 S17G24    29.97S
PARSONS        SUNNY     78  69  73 S9        30.01S
WICHITA INTL   MOSUNNY   82  65  56 S15       29.94F
WICHITA JABRA  SUNNY     80  66  62 S14       29.95S
WICHITA MCCONL SUNNY     81  62  52 S16       29.95F
WINFIELD       SUNNY     83  65  54 S16G23    29.98S
$$

KSZ007>012-019>026-033>040-048>060-102>105-031600-
NORTHEAST KANSAS

CITY           SKY/WX    TMP DP  RH WIND       PRES   REMARKS
CONCORDIA      SUNNY     81  63  54 S17G29    29.86S
EMPORIA        SUNNY     81  67  62 S15       29.96S
LAWRENCE       MOSUNNY   81  67  62 S7        29.96S
MANHATTAN      SUNNY     83  65  54 S12       29.90F
MARYSVILLE     SUNNY     82  66  57 S12G18    29.89S
OLATHE IND     SUNNY     81  68  64 S10       29.98R
OLATHE EXE     SUNNY     78  68  71 S9        29.98R
SALINA         SUNNY     83  63  50 S16G28    29.88S
TOPEKA BILLARD MOSUNNY   79  67  66 S8        29.94F
TOPEKA FORBES  MOSUNNY   82  68  62 S13       29.95S
$$


USA.gov is the U.S. government's official web portal to all federal, state and local government web resources and services.